Location: Madrid
(40.4000°N, 3.6830°W)
Time: 13:03:32
(UTC+01:00)

ISS - Pass Details

Date: 23 March 2019
Orbit: 408 x 411 km, 51.6° (Epoch: 24 March)

Event Time Altitude Azimuth Distance (km) Brightness Sun altitude
Rises 21:53:51 0° 274° (W) 2,331 1.0 -27.2°
Reaches altitude 10° 21:56:22 10° 294° (WNW) 1,471 0.0 -27.6°
Enters shadow 21:58:05 17° 324° (NW) 1,105 -1.0 -27.9°
